www.pogodaiklimat.ru

Погода и климат >> Архив погоды >> Великобритания >> Херстмонсо


ПОГОДА в Херстмонсо

  • Прогноз погоды в Херстмонсо
  • Монитор погоды в Херстмонсо

АРХИВ ПОГОДЫ в Херстмонсо

Время (UTC), дата Ветер
(напр.,м/с)
 
Видим.   Явления Облачность Т
(С)
Тd
(С)
f
(%)
Тe
(С)
Тes
(С)
Комфортность P
(гПа)
Po
(гПа)
Тmin
(С)
Tmax
(С)
R
(мм)
R24
(мм)
S
(см)
01 9.06 штиль 0 10 км н/о +9.2 +8.5 95 +8 +8 1021.9 1015.5
02 9.06 З 2 7000 м дымка н/о +9.0 +8.6 97 +7 +7 1021.8 1015.4
03 9.06 ЮЗ 1 7000 м дымка н/о +9.3 +9.0 98 +8 +8 1021.8 1015.4
04 9.06 В 1 15 км н/о +7.3 +6.8 97 +6 +6 1021.9 1015.4
05 9.06 В 1 13 км дымка н/о +8.5 +8.3 99 +8 +8 1022.0 1015.6
06 9.06 В 1 13 км н/о +10.2 +10.2 100 +10 +10 1022.2 1015.8 +7.1
07 9.06 ЮЗ 1 26 км н/о +12.4 +11.8 96 +12 +12 1022.4 1016.1
08 9.06 Ю 2 23 км н/о +14.5 +10.4 76 +14 +14 1022.3 1016.0
09 9.06 З 2 26 км н/о +15.8 +9.0 64 +16 +16 1021.9 1015.7
10 9.06 ЮЗ 2 40 км н/о +16.7 +9.6 63 +17 +17 1021.7 1015.5
11 9.06 Ю 2 28 км н/о +16.5 +7.5 55 +17 +17 1021.3 1015.1
12 9.06 Ю 3 40 км н/о +15.6 +11.0 74 +15 +15 1021.2 1015.0
13 9.06 Ю 2 26 км н/о +16.4 +9.1 62 +17 +17 1020.8 1014.5
14 9.06 Ю 2 40 км н/о +15.4 +8.4 63 +15 +15 1020.7 1014.4
15 9.06 ЮВ 2 20 км н/о +15.1 +9.8 71 +15 +15 1020.1 1013.9
16 9.06 ЮВ 1 30 км н/о +15.6 +8.8 64 +17 +17 1019.7 1013.5
17 9.06 ЮЗ 1 40 км н/о +16.3 +8.8 61 +17 +17 1019.4 1013.2
18 9.06 Ю 2 30 км н/о +15.3 +10.4 73 +15 +15 1019.4 1013.1 +16.9
19 9.06 Ю 1 22 км н/о +14.1 +10.6 79 +15 +15 1019.3 1013.0
20 9.06 ЮЗ 1 35 км н/о +13.0 +10.3 84 +13 +13 1019.3 1013.0
21 9.06 З 1 35 км н/о +12.0 +9.8 86 +13 +13 1019.3 1013.0
22 9.06 В 1 35 км н/о +12.0 +10.2 89 +12 +12 1019.2 1012.8
23 9.06 СВ 1 35 км слаб. морось с дождем н/о +11.8 +9.3 85 +12 +12 1018.8 1012.5
00 10.06 СВ 1 25 км дождь н/о +11.9 +8.8 81 +12 +12 1018.4 1012.1 0.0
01 10.06 СЗ 2 6000 м сильн. дождь н/о +10.9 +9.7 92 +10 +10 1018.3 1011.9
02 10.06 С 2 7000 м сильн. дождь н/о +10.5 +9.6 94 +9 +9 1017.9 1011.6
03 10.06 С 2 8000 м сильн. дождь н/о +10.1 +9.3 95 +8 +8 1017.3 1010.9
04 10.06 С 2 13 км слаб. дождь н/о +9.9 +9.3 96 +9 +9 1016.7 1010.4
05 10.06 СВ 2 13 км дождь н/о +9.8 +9.3 97 +8 +8 1016.3 1010.0
06 10.06 С 3 8000 м сильн. дождь н/о +10.0 +9.5 97 +8 +8 1016.1 1009.7 +9.8 15
07 10.06 С 3 17 км дождь н/о +10.3 +9.9 97 +8 +8 1015.7 1009.4
08 10.06 С 3 11 км дождь н/о +10.9 +10.3 96 +9 +9 1015.1 1008.8
09 10.06 С 3 18 км слаб. дождь н/о +11.3 +10.6 95 +9 +9 1014.7 1008.3
10 10.06 С 3 9000 м дождь н/о +11.0 +10.3 95 +9 +9 1014.3 1008.0
11 10.06 СЗ 4 4100 м дождь н/о +10.5 +9.8 95 +8 +8 1013.9 1007.5
12 10.06 СЗ 4 4800 м сильн. дождь н/о +10.2 +9.7 97 +7 +7 1013.5 1007.2 14
13 10.06 СЗ 4 5000 м сильн. дождь н/о +10.2 +9.7 97 +8 +8 1012.9 1006.5
14 10.06 СЗ 3 7000 м сильн. дождь н/о +10.0 +9.7 98 +8 +8 1012.6 1006.2
15 10.06 СЗ 3 10 км дождь н/о +10.0 +9.7 98 +8 +8 1012.2 1005.8
16 10.06 СЗ 3 23 км слаб. морось н/о +9.9 +9.5 97 +7 +7 1011.5 1005.2
17 10.06 СЗ 3 7000 м сильн. дождь н/о +9.6 +9.0 96 +7 +7 1011.2 1004.9
18 10.06 СЗ 4 12 км дождь н/о +9.4 +9.0 97 +7 +7 1010.8 1004.5 +11.5 32
19 10.06 СЗ 3 45 км в посл. час дождь н/о +9.4 +9.1 98 +7 +7 1010.7 1004.3
20 10.06 СЗ 3 50 км н/о +9.4 +9.0 97 +7 +7 1010.4 1004.1
21 10.06 ЮЗ 2 15 км в посл. час дождь н/о +9.5 +9.1 97 +8 +8 1010.8 1004.5
22 10.06 З 1 21 км н/о +9.1 +8.8 98 +8 +8 1010.5 1004.2
23 10.06 ЮЗ 2 6000 м дымка н/о +8.9 +8.7 99 +7 +7 1010.1 1003.8
00 11.06 Ю 1 3900 м дымка н/о +9.3 +9.1 99 +9 +9 1010.1 1003.8 0.4
01 11.06 Ю 2 40 км н/о +9.4 +9.2 99 +8 +8 1009.9 1003.6
02 11.06 штиль 0 35 км н/о +9.5 +9.3 99 +9 +9 1009.8 1003.5
03 11.06 штиль 0 3800 м дымка н/о +9.0 +8.7 98 +8 +8 1010.0 1003.6
04 11.06 Ю 2 26 км н/о +8.3 +8.1 99 +6 +6 1010.1 1003.7
05 11.06 СВ 1 11 км н/о +8.7 +8.5 99 +8 +8 1010.5 1004.1
06 11.06 В 1 30 км н/о +10.3 +10.1 99 +10 +10 1010.4 1004.1 +8.0 0.4
07 11.06 В 1 35 км н/о +11.7 +10.9 95 +11 +11 1010.9 1004.6
08 11.06 ЮВ 2 45 км н/о +14.1 +11.6 85 +14 +14 1011.1 1004.9
09 11.06 Ю 2 40 км н/о +15.0 +11.4 79 +15 +15 1011.3 1005.1
10 11.06 Ю 3 45 км н/о +14.7 +11.1 79 +14 +14 1011.5 1005.3
11 11.06 Ю 3 40 км н/о +15.6 +10.8 73 +15 +15 1011.7 1005.5
12 11.06 Ю 3 50 км н/о +14.8 +10.4 75 +14 +14 1012.1 1005.9 0.2
13 11.06 Ю 3 30 км н/о +16.6 +11.6 72 +17 +17 1012.1 1005.9
14 11.06 Ю 3 40 км н/о +16.2 +10.3 68 +16 +16 1012.1 1005.9
15 11.06 Ю 3 50 км н/о +16.8 +10.0 64 +17 +17 1012.1 1005.9
16 11.06 Ю 2 45 км н/о +17.3 +9.0 58 +18 +18 1011.9 1005.7
17 11.06 Ю 2 40 км н/о +17.0 +8.1 56 +18 +18 1011.5 1005.3
18 11.06 ЮВ 1 35 км н/о +18.4 +7.6 49 +20 +20 1011.3 1005.1 +18.4 0.2
19 11.06 ЮЗ 1 50 км н/о +17.1 +7.8 54 +18 +18 1011.3 1005.2
20 11.06 З 1 50 км н/о +12.9 +7.6 70 +14 +14 1011.7 1005.4
21 11.06 С 2 45 км н/о +12.3 +10.1 86 +11 +11 1012.0 1005.8
22 11.06 С 2 35 км н/о +11.6 +10.4 92 +11 +11 1012.1 1005.8
23 11.06 СВ 2 13 км н/о +11.3 +10.5 95 +10 +10 1011.4 1005.1
00 12.06 СВ 2 10 км н/о +11.2 +10.6 96 +10 +10 1011.1 1004.8
01 12.06 СВ 2 13 км н/о +11.6 +11.1 97 +10 +10 1010.8 1004.5
02 12.06 СВ 2 9000 м дымка н/о +11.6 +11.0 96 +10 +10 1010.5 1004.2
03 12.06 СВ 2 10 км дымка н/о +11.5 +10.8 95 +10 +10 1010.1 1003.8
04 12.06 СВ 1 12 км в посл. час дождь н/о +11.7 +10.9 95 +11 +11 1010.1 1003.8
05 12.06 СВ 2 10 км ливневой дождь н/о +11.7 +10.9 95 +11 +11 1010.1 1003.8
06 12.06 СВ 1 3600 м сильн. дождь н/о +11.6 +11.1 97 +11 +11 1010.2 1003.9 +11.1 5
07 12.06 С 2 8000 м слаб. дождь н/о +11.8 +11.5 98 +11 +11 1009.7 1003.4
08 12.06 СВ 2 4000 м сильн. дождь н/о +12.2 +11.8 97 +11 +11 1009.5 1003.2
09 12.06 СВ 2 21 км в посл. час дождь н/о +14.1 +12.9 92 +13 +13 1009.0 1002.8
10 12.06 СВ 2 40 км н/о +14.8 +12.2 84 +14 +14 1009.0 1002.8
11 12.06 В 1 19 км н/о +15.5 +12.4 82 +16 +16 1009.1 1002.9
12 12.06 ЮВ 1 6000 м ливневой дождь н/о +13.8 +12.0 89 +14 +14 1009.3 1003.0 4
13 12.06 В 2 2600 м сильн. дождь н/о +12.9 +11.6 92 +12 +12 1009.4 1003.1
14 12.06 СВ 1 14 км дождь н/о +13.1 +12.5 96 +13 +13 1009.4 1003.1
15 12.06 СВ 1 15 км слаб. дождь н/о +13.4 +12.5 94 +13 +13 1008.9 1002.7
16 12.06 СВ 1 35 км в посл. час дождь н/о +14.0 +12.8 92 +14 +14 1008.6 1002.4
17 12.06 СВ 1 45 км н/о +14.2 +11.9 86 +14 +14 1008.3 1002.1
18 12.06 С 2 15 км ливневой дождь н/о +16.0 +12.4 79 +16 +16 1008.0 1001.9 +16.3 12
19 12.06 В 1 50 км в посл. час дождь н/о +13.5 +11.2 86 +14 +14 1007.8 1001.6
20 12.06 штиль 0 4100 м в посл. час туман н/о +11.1 +9.7 91 +10 +10 1008.2 1001.9
21 12.06 ЮЗ 1 3000 м в посл. час туман н/о +10.8 +10.2 96 +11 +11 1008.3 1002.0
22 12.06 Ю 1 100 м туман н/о +10.2 +9.7 97 +11 +11 1008.2 1001.9
23 12.06 З 1 100 м туман н/о +10.6 +10.3 98 +11 +11 1007.8 1001.5
00 13.06 З 1 28 км н/о +10.1 +9.8 98 +9 +9 1007.4 1001.1 2
01 13.06 Ю 2 100 м туман н/о +9.5 +9.3 99 +8 +8 1007.1 1000.8
02 13.06 ЮЗ 1 900 м туман н/о +9.3 +9.2 99 +8 +8 1006.8 1000.5
03 13.06 ЮЗ 1 1900 м в посл. час туман н/о +9.7 +9.6 99 +9 +9 1006.5 1000.2
04 13.06 ЮЗ 2 4200 м в посл. час туман н/о +10.3 +10.3 100 +9 +9 1006.5 1000.2
05 13.06 ЮЗ 3 6000 м дымка н/о +11.4 +11.3 99 +10 +10 1006.6 1000.4
06 13.06 ЮЗ 3 12 км н/о +11.9 +11.6 98 +10 +10 1006.6 1000.4 +9.1 2
07 13.06 ЮЗ 4 22 км в посл. час морось н/о +12.6 +11.4 92 +11 +11 1006.7 1000.5
08 13.06 ЮЗ 5 29 км н/о +12.9 +10.7 86 +11 +11 1006.9 1000.6
09 13.06 ЮЗ 5 40 км н/о +12.9 +9.8 81 +11 +11 1007.1 1000.9
10 13.06 ЮЗ 4 30 км слаб. ливневой дождь н/о +13.3 +11.7 90 +12 +12 1007.2 1001.0
11 13.06 ЮЗ 5 24 км в посл. час дождь н/о +13.7 +10.7 82 +12 +12 1007.3 1001.1
12 13.06 ЮЗ 6 26 км слаб. морось с дождем н/о +13.3 +10.0 80 +11 +11 1007.4 1001.2 0.0
13 13.06 ЮЗ 5 30 км в посл. час дождь н/о +13.9 +10.0 77 +12 +12 1007.5 1001.3
14 13.06 ЮЗ 6 35 км н/о +14.7 +10.1 74 +13 +13 1007.5 1001.3
15 13.06 ЮЗ 6-11
{13}
40 км в посл. час дождь н/о +14.1 +9.2 72 +12 +12 1007.7 1001.5
16 13.06 ЮЗ 5 23 км н/о +14.0 +10.2 78 +12 +12 1007.7 1001.5
17 13.06 ЮЗ 6 30 км н/о +13.8 +10.4 80 +12 +12 1007.7 1001.4
18 13.06 ЮЗ 6 18 км н/о +13.2 +9.8 80 +11 +11 1008.1 1001.8 +15.3 0.0
19 13.06 ЮЗ 5 24 км слаб. ливневой дождь н/о +13.0 +10.0 82 +11 +11 1008.5 1002.3
20 13.06 ЮЗ 5 25 км в посл. час дождь н/о +12.8 +10.3 85 +11 +11 1009.0 1002.8
21 13.06 ЮЗ 5 24 км н/о +12.9 +10.9 88 +11 +11 1009.6 1003.4
22 13.06 ЮЗ 5 19 км н/о +12.7 +10.8 88 +11 +11 1009.9 1003.7
23 13.06 ЮЗ 4 20 км н/о +12.5 +10.9 90 +10 +10 1010.0 1003.7
00 14.06 ЮЗ 3 28 км н/о +12.7 +11.0 89 +11 +11 1010.2 1004.0 0.0
01 14.06 ЮЗ 3 17 км н/о +12.6 +11.1 91 +11 +11 1010.1 1003.8
02 14.06 ЮЗ 2 27 км н/о +12.5 +10.9 90 +11 +11 1009.8 1003.6
03 14.06 ЮЗ 2 22 км н/о +12.0 +10.8 92 +11 +11 1010.0 1003.8
04 14.06 ЮЗ 4 30 км н/о +12.6 +10.9 89 +11 +11 1010.2 1003.9
05 14.06 ЮЗ 3 30 км н/о +12.9 +11.0 88 +11 +11 1010.6 1004.3
06 14.06 ЮЗ 4 35 км н/о +13.6 +11.6 88 +12 +12 1010.6 1004.4 +11.9 0.0
07 14.06 ЮЗ 4 45 км н/о +14.5 +11.5 82 +13 +13 1010.9 1004.7
08 14.06 ЮЗ 5 28 км н/о +15.6 +11.9 79 +14 +14 1011.2 1005.0
09 14.06 ЮЗ 4 30 км н/о +14.8 +11.4 80 +14 +14 1011.7 1005.5
10 14.06 ЮЗ 4 30 км н/о +15.0 +11.1 77 +14 +14 1012.2 1006.0
11 14.06 ЮЗ 4 29 км н/о +15.7 +12.1 79 +15 +15 1012.4 1006.2
12 14.06 ЮЗ 5 25 км н/о +15.6 +10.8 73 +14 +14 1012.5 1006.3
13 14.06 ЮЗ 5 35 км н/о +16.7 +11.8 73 +16 +16 1012.8 1006.6
14 14.06 ЮЗ 5 40 км н/о +16.8 +11.1 69 +16 +16 1012.9 1006.7
15 14.06 ЮЗ 5 45 км н/о +17.3 +10.9 66 +17 +17 1012.7 1006.6
16 14.06 ЮЗ 4 45 км н/о +18.4 +11.3 63 +19 +19 1012.0 1005.9
17 14.06 ЮЗ 3 30 км н/о +17.1 +10.5 65 +17 +17 1012.3 1006.1
18 14.06 З 3 50 км н/о +16.5 +9.0 61 +16 +16 1012.3 1006.1 +18.5
19 14.06 З 2 40 км н/о +15.1 +9.0 67 +15 +15 1012.3 1006.1
20 14.06 ЮЗ 1 45 км н/о +14.0 +9.1 72 +14 +14 1012.7 1006.5
21 14.06 ЮВ 1 30 км н/о +12.9 +9.8 81 +14 +14 1013.1 1006.8
22 14.06 штиль 0 30 км н/о +12.8 +10.4 85 +12 +12 1013.1 1006.8
23 14.06 штиль 0 40 км н/о +12.4 +10.4 88 +12 +12 1012.8 1006.6
00 15.06 штиль 0 40 км н/о +11.8 +10.1 89 +11 +11 1012.9 1006.6
01 15.06 З 1 35 км н/о +11.7 +10.1 90 +12 +12 1012.7 1006.4
02 15.06 З 1 27 км н/о +11.7 +10.3 91 +12 +12 1012.4 1006.1
03 15.06 штиль 0 29 км в посл. час дождь н/о +11.7 +10.6 93 +11 +11 1012.6 1006.3
04 15.06 З 1 27 км н/о +11.7 +10.6 93 +12 +12 1012.7 1006.4
05 15.06 В 1 25 км н/о +11.2 +10.2 94 +12 +12 1012.9 1006.6
06 15.06 В 1 30 км н/о +12.2 +11.5 95 +13 +13 1012.9 1006.6 +11.2 0.0
07 15.06 ЮЗ 2 30 км н/о +15.0 +11.3 79 +15 +15 1013.2 1007.0
08 15.06 ЮЗ 4 35 км н/о +16.0 +10.7 71 +15 +15 1013.4 1007.2
09 15.06 ЮЗ 4 35 км н/о +16.3 +12.5 78 +16 +16 1013.8 1007.6
10 15.06 ЮЗ 5 45 км н/о +16.6 +10.5 67 +16 +16 1013.9 1007.7
11 15.06 ЮЗ 4 50 км н/о +16.4 +10.1 66 +16 +16 1014.2 1008.0
12 15.06 ЮЗ 4 35 км н/о +17.6 +11.4 67 +17 +17 1014.5 1008.3
13 15.06 ЮЗ 4 45 км н/о +17.0 +11.0 68 +17 +17 1014.6 1008.5
14 15.06 ЮЗ 5 35 км н/о +16.9 +11.7 71 +16 +16 1014.7 1008.6
15 15.06 ЮЗ 5 30 км н/о +15.8 +10.3 70 +15 +15 1014.8 1008.6
16 15.06 ЮЗ 5 40 км н/о +15.3 +10.8 75 +14 +14 1014.7 1008.4
17 15.06 ЮЗ 3 7000 м слаб. ливневой дождь н/о +14.0 +12.3 89 +13 +13 1014.7 1008.4
18 15.06 ЮЗ 2 10 км слаб. дождь н/о +13.4 +12.5 94 +13 +13 1014.8 1008.5 +18.3 0.6
19 15.06 ЮЗ 2 11 км слаб. дождь н/о +13.3 +12.7 96 +12 +12 1014.7 1008.4
20 15.06 ЮЗ 3 12 км в посл. час дождь н/о +13.4 +13.0 97 +12 +12 1014.4 1008.1
21 15.06 ЮЗ 2 17 км н/о +13.1 +12.6 97 +12 +12 1015.2 1008.9
22 15.06 ЮЗ 2 10 км в посл. час дождь н/о +12.7 +12.3 97 +12 +12 1015.4 1009.2
23 15.06 ЮЗ 3 8000 м слаб. ливневой дождь н/о +12.5 +12.2 98 +11 +11 1015.5 1009.2

 

Местоположение метеостанции Херстмонсо (Великобритания): широта 50.90 долгота 0.32 высота над уровнем моря 52 м.

В архиве по умолчанию представлена погода в Херстмонсо за последнюю неделю. Архивные данные за месяц целиком и за предыдущие месяцы, начиная с января 2011 года, Вы можете получить, выбрав интересующий диапазон дат из раскрывающегося списка и нажав кнопку "Ввод!".


*Определитесь, кто Вы:
робот инопланетянин человек

Внимание! Время в таблицах - всемирное. Для получения местного времени необходимо прибавить поправку, которая равна 0 ч.

Смотрите также архив погоды в соседних городах и на ближайших метеорологических станциях:

Погода в Аэропорту Брайтон-Сити (Великобритания) (43 км)
Погода на Аэродроме Кенли (Великобритания) (53 км)
Погода в Чарлвуде (Великобритания) (61 км)
Погода в Грейвзенде (Великобритания) (63 км)
Погода в Лондоне (Великобритания) (73 км)
Погода в Заливе Лангдон (Великобритания) (76 км)
Погода в Шоберинессе (Великобритания) (81 км)
Погода в Аэропорту Хитроу (Великобритания) (84 км)
Погода в Фарнборо (Великобритания) (87 км)
Погода на Острове Торвер (Великобритания) (88 км)

Пояснения к столбцам:

Ветер - указаны скорость ветра в м/с - средняя за 10 мин, порывы в срок и между сроками (в фигурных скобках) и направление, откуда дует ветер: С - северный, СВ - северо-восточный, В - восточный, ЮВ - юго-восточный, Ю - южный, ЮЗ - юго-западный, З - западный, СЗ - северо-западный.
Видимость - горизонтальная дальность видимости в метрах или километрах. При видимости от 1 до 10 км при отсутствии осадков обычно наблюдается дымка, при ухудшении видимости до 1 км и менее - туман. В сухую погоду видимость может ухудшаться дымом, пылью или мглою.
Явления - указаны атмосферные явления, наблюдавшиеся в срок или в последний час перед сроком; фигурными скобками обозначены явления, наблюдавшиеся между сроками (за 1-3 часа до срока); квадратными скобками обозначены град или гололедные отложения с указанием их диаметра в мм.
Облачность - указаны через наклонную черту общая и нижняя облачность в баллах и высота нижней границы облаков в метрах; квадратными скобками обозначены формы облаков: Ci - перистые, Cs - перисто-слоистые, Cc - перисто-кучевые, Ac - высококучевые, As - высокослоистые, Sc - слоисто-кучевые, Ns - слоисто-дождевые, Cu - кучевые, Cb - кучево-дождевые. Подробнее классификацию облаков см. в Атласе облаков (PDF).
T - Температура воздуха - температура, измеренная на высоте 2 м над землей.
Td - Температура точки росы - температура, при понижении до которой содержащийся в воздухе водяной пар достигнет насыщения.
f - Относительная влажность воздуха - влажноcть воздуха, измеренная на высоте 2 м над землей.
Te - Эффективная температура - температура, которую ощущает одетый по сезону человек в тени. Характеристика душности погоды. При расчете учитывается влияние влажности воздуха и скорости ветра на теплоощущения человека.
Tes - Эффективная температура на солнце - температура, которую ощущает человек, с поправкой на солнечный нагрев. Характеристика знойности погоды. Зависит от высоты солнца над горизонтом, облачности и скорости ветра. Ночью, в пасмурную погоду, а также при ветре 12 м/с и более поправка равна нулю.
P - Атмосферное давление - приведенное к уровню моря атмосферное давление.
Po - Атмосферное давление - измеренное на уровне метеостанции атмосферное давление.
Tmin - Минимальная температура - минимум температуры воздуха на высоте 2 м над землей.
Tmax - Максимальная температура - максимум температуры воздуха на высоте 2 м над землей.
R - Количество осадков - Количество выпавших осадков за период времени, мм. При наведении курсора мыши на число - период времени, за который выпало указанное количество осадков.
R24 - Количество осадков - Количество выпавших осадков за 24 часа, мм.
S - Снежный покров - Высота снежного покрова, см. При наведении курсора мыши на число - состояние снежного покрова и степень покрытия местности в баллах.